Simultaneous Nadir Overpasses (SNOs) Predictions

Prediction of SNOs between GOES-15 and TERRA Satellite Orbit:

Table of predicted SNOs for the next 14.0 days since TLE Epoch: 9/13/2015
Index Date Time (GOES-15) GOES-15 Lat,Lon TERRA Lat,Lon Distance(km) Time Diff (sec)
1 09/13/2015 07:41:01 0.33,-135.23 -0.24,-137.91 305.47 80
2 09/15/2015 07:31:27 0.33,-135.24 0.40,-134.95 33.50 80
3 09/17/2015 07:19:13 0.32,-135.25 1.04,-131.98 371.93 80
4 09/17/2015 19:37:48 -0.34,-135.30 0.05,-137.14 208.31 80
5 09/19/2015 19:28:13 -0.33,-135.30 -0.54,-134.16 129.34 80
6 09/20/2015 07:46:57 0.34,-135.25 -0.52,-139.36 466.70 80
7 09/21/2015 19:15:59 -0.32,-135.30 -1.20,-131.20 466.17 80
8 09/22/2015 07:34:42 0.33,-135.24 0.08,-136.38 130.04 80
9 09/24/2015 07:25:07
